Home   Weather   Brattleboro   Past weeks

Flag for USA Past Weather in Brattleboro, Vermont, USA — Yesterday and Last 2 Weeks

Now
28 °F

Sunny.


Feels Like: 19 °F
Forecast: 22 / 30 °F
Wind: 10 mph from Northwest

Location: Keene / Dillant

Current Time: Dec 9, 2016 at 8:54:26 am

Latest Report: Dec 9, 2016 at 7:56 am


Visibility: 10 mi

Pressure: 30.01 "Hg

Humidity: 56%

Dew Point: 14 °F

Location of BrattleboroLocation

Past Weather in Brattleboro — Graph

°F

Brattleboro Temperature Yesterday

Maximum temperature yesterday: 39 °F (at 2:56 pm)
Minimum temperature yesterday: 24 °F (at 5:56 am)
Average temperature yesterday: 31 °F

High & Low Weather Summary for the Past Weeks

 TemperatureHumidityPressure
High50 °F (Dec 1, 10:56 am)100% (Nov 24, 10:56 pm)30.42 "Hg (Nov 24, 10:56 pm)
Low17 °F (Dec 6, 2:56 am)42% (Nov 28, 2:56 pm)29.52 "Hg (Dec 1, 6:56 am)
Average35 °F85%30.05 "Hg
* Reported Nov 24 6:56 am — Dec 9 6:56 am, Brattleboro, Weather by CustomWeather, © 2016

Note: Actual official high and low records may vary slightly from our data, if they occured in-between our weather recording intervals... More about our weather records

Advertising

Brattleboro Weather History for the Previous 24 Hours

Scroll right to see more
 ConditionsComfort  
Time TempWeatherWind HumidityBarometerVisibility
6:56 am
Fri, Dec 9
28 °FClear.13 mph61%29.97 "Hg10 mi
4:56 am29 °FPassing clouds.6 mph66%29.91 "Hg10 mi
3:56 am29 °FPassing clouds.9 mph64%29.90 "Hg10 mi
2:56 am29 °FClear.7 mph64%29.90 "Hg10 mi
1:56 am30 °FPassing clouds.6 mph61%29.90 "Hg10 mi
12:56 am30 °FClear.8 mph61%29.89 "Hg10 mi
11:56 pm
Thu, Dec 8
31 °FPassing clouds.6 mph59%29.90 "Hg10 mi
10:56 pm31 °FClear.8 mph59%29.90 "Hg10 mi
9:56 pm32 °FClear.8 mph59%29.88 "Hg10 mi
8:56 pm33 °FPassing clouds.8 mph56%29.89 "Hg10 mi
7:56 pm31 °FPassing clouds.5 mph67%29.90 "Hg10 mi
6:56 pm32 °FPassing clouds.No wind66%29.89 "Hg10 mi
5:56 pm31 °FClear.No wind73%29.88 "Hg10 mi
4:56 pm34 °FClear.7 mph61%29.87 "Hg10 mi
3:56 pm38 °FPartly sunny.8 mph55%29.86 "Hg10 mi
2:56 pm39 °FBroken clouds.7 mph57%29.85 "Hg10 mi
1:56 pm38 °FMostly cloudy.6 mph68%29.84 "Hg10 mi
12:56 pm37 °FMore clouds than sun.6 mph89%29.85 "Hg10 mi
11:56 am36 °FSunny.No wind92%29.88 "Hg10 mi
10:56 am34 °FPartly sunny.No wind97%29.90 "Hg8 mi
9:56 am32 °FPassing clouds.No wind96%29.95 "Hg7 mi
9:01 am28 °FIce fog.3 mph100%29.90 "Hg4 mi
8:04 am27 °FIce fog.3 mph100%29.91 "Hg2 mi
Weather by CustomWeather, © 2016

See weather overviewHow to use our weather pages